Miscellaneous Local Product
Issued by NWS North Platte, NE

Home | Current Version | Previous Version | Text Only | Print | Product List | Glossary On
Versions: 1 2 3 4 5 6 7 8 9 10 11 12 13 14 15 16 17 18 19 20 21 22 23 24 25 26 27 28 29 30 31 32 33 34 35 36 37 38 39 40 41 42 43 44 45 46 47 48 49 50
000
AXUS43 KLBF 220310
MISLBF


WESTERN AND NORTH CENTRAL NEBRASKA HOURLY WEATHER ROUNDUP
NATIONAL WEATHER SERVICE NORTH PLATTE NE
900 PM CST SUN DEC 21 2014

***STATIONS NOT REPORTING VARIABLES SUCH AS SKY/WEATHER OR
PRESSURE ARE PROVIDED BY THE NEBRASKA DEPARTMENT OF
ROADS...RAWS...AND APRS NETWORKS...AND ARE NOT UNDER
NATIONAL WEATHER SERVICE QUALITY CONTROL***

...OBSERVATIONS IN AND NEAR THE EASTERN PANHANDLE OF NEBRASKA...

CITY           SKY/WX    TMP DP  RH WIND       PRES   REMARKS
PINE RIDGE     PTCLDY    34  29  82 CALM      29.47R
CHADRON        CLOUDY    39  30  70 W13       29.50R WCI  31
ALLIANCE       MOCLDY    28  26  92 W8        29.50R WCI  20
SIDNEY         MOCLDY    38  31  76 NW12      29.53R WCI  30
WHITECLAY        N/A     34  28  77 W7          N/A  WCI  28
CRESCENT LAKE    N/A     34  29  82 W8          N/A  WCI  27
LISCO            N/A     32  27  80 SW3         N/A
BIG SPRINGS      N/A     34  30  86 SW6         N/A  WCI  29
$$

...OBSERVATIONS IN NORTH CENTRAL NEBRASKA...

CITY           SKY/WX    TMP DP  RH WIND       PRES   REMARKS
VALENTINE      CLOUDY    36  31  82 SW9       29.42S WCI  29
THEDFORD       PTCLDY    36  33  90 SW12      29.45S WCI  28
AINSWORTH      CLOUDY    35  32  90 S15       29.44S WCI  25
O`NEILL        DRIZZLE   38  38  98 S16       29.50R WCI  29
BROKEN BOW     CLOUDY    38  35  89 SE7       29.49F WCI  33
BROWNLEE         N/A     36  32  85 S7          N/A  WCI  30
SPRINGVIEW       N/A     37  32  83 CALM        N/A
BREWSTER         N/A     37  34  90 S3          N/A
ROSE             N/A     38  37  99 E10         N/A  WCI  30
SARGENT          N/A     37  36  95 CALM        N/A
COMSTOCK         N/A     40  39  99 S14         N/A  WCI  32
CHAMBERS         N/A     37  36  98 S5G15       N/A  WCI  33
EWING            N/A     38  37  97 CALM        N/A
$$

...OBSERVATIONS IN SOUTHWEST NEBRASKA AND FAR NORTHEAST COLORADO...

CITY           SKY/WX    TMP DP  RH WIND       PRES   REMARKS
WRAY           CLOUDY    37  33  87 W8        29.53R WCI  30
HOLYOKE        FAIR      37  32  81 W7        29.52S WCI  32
IMPERIAL       MOCLDY    35  30  82 W3        29.51R
OGALLALA       PTCLDY    33  31  94 W7        29.50R WCI  26
NORTH PLATTE   MOCLDY    35  32  88 S6        29.48F WCI  30
MCCOOK         CLOUDY    38  34  85 CALM      29.51F
LEXINGTON      CLOUDY    40  37  87 S9        29.53S WCI  34
PAXTON           N/A     36  32  87 CALM        N/A
BRADY            N/A     37  33  87 CALM        N/A
GOTHENBURG       N/A     39  35  85 S8          N/A  WCI  33
CALLAWAY         N/A     35  34  96 S15         N/A  WCI  25
$$

...NORTH PLATTE AREA...

CITY           SKY/WX    TMP DP  RH WIND       PRES   REMARKS
AIRPORT        MOCLDY    35  32  88 S6        29.48F WCI  30
DOWNTOWN         N/A     35  32  89 CALM        N/A
$$

...SOME WEATHER OBSERVATIONS FROM AROUND THE REGION...

CITY           SKY/WX    TMP DP  RH WIND       PRES   REMARKS
DENVER         CLOUDY    44  27  51 N7        29.58R
LARAMIE        MOCLDY    33  27  78 NW24G35   29.60R WCI  20
CHEYENNE       CLOUDY    37  30  75 N20G33    29.58R WCI  27
SCOTTSBLUFF    CLOUDY    39  32  76 W13       29.55R WCI  31
RAPID CITY     MOCLDY    37  32  82 N13       29.44S WCI  29
PIERRE         CLOUDY    29  27  92 NW6       29.42R WCI  23
WINNER         CLOUDY    41  31  67 SW14      29.42R
SIOUX FALLS    CLOUDY    39  37  92 S16       29.55F WCI  30
OMAHA          DRIZZLE   42  41  96 S18       29.68F FOG
GRAND ISLAND   CLOUDY    41  38  89 S18       29.58S
KANSAS CITY    CLOUDY    44  40  85 SE14      29.76F
WICHITA        CLOUDY    45  42  89 S17G26    29.69S
HAYS           CLOUDY    41  34  75 S9        29.59F
LIBERAL        PTCLDY    37  30  75 S7        29.56F WCI  32
GOODLAND       CLOUDY    42  34  73 W14       29.54S
$$



USA.gov is the U.S. government's official web portal to all federal, state and local government web resources and services.